Rochester, NY

11:05 PM EDT on April 20, 2018 (GMT -0400)
Greater Rochester International

Weather History for KROC - October, 2014

Change the Weather History Date:

Monday, October 27, 2014

  Actual Average Record
Temperature  
Mean Temperature 48 °F 47 °F  
Max Temperature 60 °F 56 °F 83 °F (1947)
Min Temperature 35 °F 38 °F 26 °F (1936)
Degree Days  
Heating Degree Days 17 18  
Month to date heating degree days 295 377  
Since 1 July heating degree days 444 558  
Cooling Degree Days 0 0  
Month to date cooling degree days 9 0  
Year to date cooling degree days 541 534  
Moisture  
Dew Point 37 °F    
Average Humidity 68    
Maximum Humidity 92    
Minimum Humidity 43    
Precipitation  
Precipitation T in 0.08 in 0.93 in (1954)
Month to date precipitation 1.79 2.37  
Year to date precipitation 28.15 28.35  
Snow  
Snow 0.00 in 0.10 in 1.40 in (1957)
Month to date snowfall 0.0 0.1  
Since 1 July snowfall 0.0 0.1  
Since 1 September snowfall 0.0 0.1  
Snow Depth 0.00 in    
Sea Level Pressure  
Sea Level Pressure 29.97 in    
Wind  
Wind Speed 6 mph (SSW)    
Max Wind Speed 14 mph    
Max Gust Speed 20 mph    
Visibility 10 miles    
Events      
T = Trace of Precipitation, MM = Missing Value Source: NWS Daily Summary

Daily Weather History Graph

Daily Weather History Graph

Search for Another Location

Airport or City:

Astronomy

Oct. 27, 2014 Rise Set
Actual Time 7:39 AM EDT 6:09 PM EDT
Civil Twilight 7:09 AM EDT 6:38 PM EDT
Nautical Twilight 6:36 AM EDT 7:11 PM EDT
Astronomical Twilight 6:03 AM EDT 7:44 PM EDT
Moon 11:15 AM EDT (10/27) 9:10 PM EDT (10/27)
Length of Visible Light 11h 28m
Length of Day
10h 30m
Waxing Crescent, 15% of the Moon is Illuminated
Oct 27
Waxing Crescent
Oct 30
First Quarter
Nov 6
Full
Nov 14
Last Quarter
Nov 22
New

Hourly Weather History & Observations

Time (EDT) Temp. Windchill Dew Point Humidity Pressure Visibility Wind Dir Wind Speed Gust Speed Precip Events Conditions
12:54 AM 44.1 °F 39.0 °F 36.0 °F 73% 29.92 in 10.0 mi WSW 9.2 mph - N/A   Mostly Cloudy
1:54 AM 39.9 °F 34.5 °F 35.1 °F 83% 29.93 in 10.0 mi WSW 8.1 mph - N/A   Partly Cloudy
2:54 AM 39.0 °F 34.0 °F 35.1 °F 86% 29.94 in 10.0 mi WSW 6.9 mph - N/A   Clear
3:54 AM 39.0 °F 33.4 °F 35.1 °F 86% 29.95 in 10.0 mi WSW 8.1 mph - N/A   Clear
4:54 AM 37.0 °F 31.6 °F 34.0 °F 89% 29.97 in 10.0 mi WSW 6.9 mph - N/A   Clear
5:54 AM 37.0 °F 32.4 °F 34.0 °F 89% 29.99 in 10.0 mi WSW 5.8 mph - N/A   Scattered Clouds
6:54 AM 37.0 °F 31.6 °F 35.1 °F 93% 30.01 in 10.0 mi WSW 6.9 mph - N/A   Partly Cloudy
7:54 AM 36.0 °F 32.1 °F 34.0 °F 93% 30.03 in 10.0 mi SW 4.6 mph - N/A   Partly Cloudy
8:54 AM 39.9 °F 35.8 °F 37.0 °F 89% 30.05 in 10.0 mi WSW 5.8 mph - N/A   Mostly Cloudy
9:25 AM 43.0 °F 39.5 °F 37.9 °F 82% 30.03 in 10.0 mi SW 5.8 mph - N/A   Mostly Cloudy
9:54 AM 45.0 °F 41.8 °F 39.9 °F 82% 30.06 in 10.0 mi WSW 5.8 mph - N/A   Mostly Cloudy
10:54 AM 48.9 °F - 41.0 °F 74% 30.06 in 10.0 mi Variable 4.6 mph - N/A   Mostly Cloudy
11:54 AM 51.1 °F - 39.9 °F 66% 30.05 in 10.0 mi Calm Calm - N/A   Mostly Cloudy
12:54 PM 53.1 °F - 39.0 °F 59% 30.04 in 10.0 mi Calm Calm - N/A   Mostly Cloudy
1:54 PM 54.0 °F - 39.0 °F 57% 30.01 in 10.0 mi SSE 5.8 mph - N/A   Mostly Cloudy
2:54 PM 57.0 °F - 37.0 °F 47% 29.99 in 10.0 mi SSE 5.8 mph - N/A   Mostly Cloudy
3:54 PM 57.9 °F - 37.0 °F 46% 29.99 in 10.0 mi South 5.8 mph - N/A   Mostly Cloudy
4:54 PM 59.0 °F - 37.0 °F 44% 29.96 in 10.0 mi Variable 3.5 mph - N/A   Mostly Cloudy
5:54 PM 57.9 °F - 36.0 °F 44% 29.96 in 10.0 mi Calm Calm - N/A   Mostly Cloudy
6:54 PM 55.0 °F - 37.9 °F 53% 29.95 in 10.0 mi ESE 6.9 mph - N/A   Scattered Clouds
7:54 PM 54.0 °F - 39.0 °F 57% 29.92 in 10.0 mi SE 13.8 mph - N/A   Clear
8:54 PM 54.0 °F - 39.0 °F 57% 29.90 in 10.0 mi ESE 6.9 mph - N/A   Mostly Cloudy
9:54 PM 53.1 °F - 39.0 °F 59% 29.89 in 10.0 mi SE 6.9 mph - N/A   Mostly Cloudy
10:54 PM 52.0 °F - 39.0 °F 61% 29.87 in 10.0 mi SE 5.8 mph - N/A   Clear
11:54 PM 52.0 °F - 37.9 °F 59% 29.86 in 10.0 mi SE 3.5 mph - N/A   Scattered Clouds